This is the latest recevied weather packets stored in our database for station/object KD4EED. If no packets are shown the sender has not sent any weather packets the latest 1 day(s).
| Time | Temp. | Humidity | Pressure | Rain* | Wind** | Luminosity | Snow |
|---|---|---|---|---|---|---|---|
| 1778037650 | 16.11° C | 71% | 1012.9 hPa | - | - | 0 W/m² | - |
| 1778037348 | 16.11° C | 70% | 1012.6 hPa | - | - | 0 W/m² | - |
| 1778036743 | 16.11° C | 69% | 1012.6 hPa | - | - | 0 W/m² | - |
| 1778036137 | 16.67° C | 68% | 1012.4 hPa | - | - | 0 W/m² | - |
| 1778035530 | 16.67° C | 68% | 1012.5 hPa | - | - | 1 W/m² | - |
| 1778035226 | 16.67° C | 67% | 1012.4 hPa | - | - | 1 W/m² | - |
| 1778034922 | 16.67° C | 67% | 1012.3 hPa | - | - | 2 W/m² | - |
| 1778034620 | 16.67° C | 67% | 1012.2 hPa | - | - | 4 W/m² | - |
| 1778034317 | 16.67° C | 66% | 1012.1 hPa | - | - | 7 W/m² | - |
| 1778034015 | 16.67° C | 65% | 1012 hPa | - | - | 10 W/m² | - |
| 1778033712 | 16.67° C | 64% | 1012.1 hPa | - | - | 15 W/m² | - |
| 1778033409 | 16.67° C | 64% | 1011.9 hPa | - | - | 19 W/m² | - |
| 1778033107 | 17.22° C | 63% | 1011.8 hPa | - | - | 20 W/m² | - |
| 1778032804 | 17.22° C | 62% | 1011.8 hPa | - | - | 25 W/m² | - |
| 1778032501 | 17.22° C | 62% | 1011.9 hPa | - | - | 34 W/m² | - |
| 1778032198 | 17.22° C | 62% | 1011.8 hPa | - | - | 37 W/m² | - |
| 1778031895 | 17.22° C | 62% | 1011.9 hPa | - | - | 41 W/m² | - |
| 1778031591 | 17.22° C | 62% | 1011.6 hPa | - | - | 48 W/m² | - |
| 1778031289 | 17.22° C | 61% | 1011.7 hPa | - | - | 52 W/m² | - |
| 1778030985 | 17.22° C | 62% | 1011.7 hPa | - | - | 47 W/m² | - |
| 1778030682 | 17.22° C | 62% | 1011.7 hPa | - | - | 79 W/m² | - |
| 1778030379 | 17.22° C | 62% | 1011.9 hPa | - | - | 66 W/m² | - |
| 1778029773 | 17.22° C | 62% | 1011.9 hPa | - | - | 37 W/m² | - |
| 1778029472 | 17.22° C | 61% | 1012.1 hPa | - | - | 36 W/m² | - |
| 1778029167 | 17.78° C | 60% | 1011.8 hPa | - | - | 44 W/m² | - |
* Rain since midnight (hover to see other rain measurements)
** Current wind speed in m/s (hover to see current wind gust speed)